| time (UTC) | temp C | wind direction | speed KPH | gust KPH | rain 1hr cm | rain 24hr cm | rain mn cm | humidity % | barometer mb |
| 20260906064656 | 26 | 167 | 0.0 | 0.0 | 0.00 | 0.00 | 0.00 | 84 | 993.0 |
| 20260906063155 | 27 | 167 | 0.0 | 0.0 | 0.00 | 0.00 | 0.00 | 84 | 993.2 |
| 20260906061656 | 27 | 167 | 0.0 | 0.0 | 0.00 | 0.00 | 0.00 | 83 | 993.0 |
| 20260906060157 | 27 | 167 | 0.0 | 0.0 | 0.00 | 0.00 | 0.00 | 83 | 992.8 |
| 20260906054655 | 27 | 178 | 0.0 | 0.0 | 0.00 | 0.00 | 0.00 | 82 | 992.7 |
| 20260906051656 | 27 | 37 | 0.0 | 0.0 | 0.00 | 0.00 | 0.00 | 79 | 992.9 |
| 20260906044655 | 28 | 35 | 0.0 | 0.0 | 0.00 | 0.00 | 0.00 | 78 | 993.2 |
| 20260906041656 | 28 | 41 | 0.0 | 0.0 | 0.00 | 0.00 | 0.00 | 78 | 993.1 |
| 20260906040156 | 28 | 41 | 0.0 | 0.0 | 0.00 | 0.00 | 0.00 | 77 | 993.4 |
| 20260906033156 | 29 | 41 | 0.0 | 0.0 | 0.00 | 0.00 | 0.00 | 74 | 993.3 |
| 20260906031655 | 29 | 41 | 0.0 | 0.0 | 0.00 | 0.00 | 0.00 | 72 | 993.1 |
| 20260906030156 | 29 | 41 | 0.0 | 0.0 | 0.00 | 0.00 | 0.00 | 72 | 992.9 |
| 20260906024654 | 30 | 41 | 0.0 | 0.0 | 0.00 | 0.00 | 0.00 | 71 | 992.9 |
| 20260906023157 | 30 | 41 | 0.0 | 0.0 | 0.00 | 0.00 | 0.00 | 70 | 992.5 |
| 20260906020159 | 30 | 41 | 0.0 | 0.0 | 0.00 | 0.00 | 0.00 | 68 | 992.1 |
| 20260906014654 | 31 | 41 | 0.0 | 0.0 | 0.00 | 0.00 | 0.00 | 67 | 992.1 |
| 20260906013156 | 31 | 41 | 0.0 | 0.0 | 0.00 | 0.00 | 0.00 | 67 | 992.2 |
| 20260906011656 | 32 | 41 | 0.0 | 0.0 | 0.00 | 0.00 | 0.00 | 66 | 992.1 |
| 20260906010157 | 32 | 41 | 0.0 | 1.6 | 0.00 | 0.00 | 0.00 | 64 | 991.9 |
| 20260906003156 | 33 | 41 | 0.0 | 0.0 | 0.00 | 0.00 | 0.00 | 60 | 991.7 |
| 20260906001655 | 33 | 41 | 0.0 | 0.0 | 0.00 | 0.00 | 0.00 | 60 | 991.9 |
| 20260906000158 | 34 | 41 | 0.0 | 0.0 | 0.00 | 0.00 | 0.00 | 58 | 991.9 |
| 20260905231656 | 36 | 12 | 0.0 | 4.8 | 0.00 | 0.00 | 0.00 | 53 | 991.9 |
| 20260905224659 | 36 | 45 | 0.0 | 4.8 | 0.00 | 0.00 | 0.00 | 51 | 991.9 |
| 20260905223153 | 37 | 26 | 0.0 | 1.6 | 0.00 | 0.00 | 0.00 | 50 | 991.8 |
| 20260905221653 | 37 | 93 | 0.0 | 1.6 | 0.00 | 0.00 | 0.00 | 53 | 991.9 |
| 20260905220156 | 37 | 303 | 0.0 | 3.2 | 0.00 | 0.00 | 0.00 | 48 | 992.0 |
| 20260905214658 | 36 | 150 | 1.6 | 6.4 | 0.00 | 0.00 | 0.00 | 55 | 992.0 |
| 20260905213156 | 37 | 215 | 3.2 | 8.0 | 0.00 | 0.00 | 0.00 | 50 | 992.2 |
| 20260905211654 | 36 | 235 | 1.6 | 6.4 | 0.00 | 0.00 | 0.00 | 53 | 992.2 |
| 20260905210158 | 37 | 72 | 0.0 | 6.4 | 0.00 | 0.00 | 0.00 | 52 | 992.1 |
| 20260905203154 | 37 | 223 | 0.0 | 9.7 | 0.00 | 0.00 | 0.00 | 49 | 992.4 |
| 20260905201654 | 37 | 70 | 0.0 | 4.8 | 0.00 | 0.00 | 0.00 | 55 | 992.6 |
| 20260905200158 | 36 | 50 | 0.0 | 4.8 | 0.00 | 0.00 | 0.00 | 53 | 992.9 |
| 20260905194655 | 36 | 204 | 1.6 | 6.4 | 0.00 | 0.00 | 0.00 | 51 | 993.2 |
| 20260905193157 | 36 | 78 | 4.8 | 19.3 | 0.00 | 0.00 | 0.00 | 57 | 993.4 |
| 20260905191654 | 36 | 264 | 1.6 | 8.0 | 0.00 | 0.00 | 0.00 | 50 | 993.6 |
| 20260905184654 | 37 | 8 | 1.6 | 4.8 | 0.00 | 0.00 | 0.00 | 53 | 994.1 |
| 20260905181657 | 36 | 96 | 0.0 | 4.8 | 0.00 | 0.00 | 0.00 | 53 | 994.4 |
| 20260905174658 | 35 | 141 | 0.0 | 8.0 | 0.00 | 0.00 | 0.00 | 61 | 994.5 |
| 20260905171700 | 33 | 225 | 1.6 | 4.8 | 0.00 | 0.00 | 0.00 | 60 | 994.7 |
| 20260905164655 | 32 | 60 | 3.2 | 6.4 | 0.00 | 0.00 | 0.00 | 65 | 995.1 |
| 20260905163155 | 32 | 320 | 3.2 | 6.4 | 0.00 | 0.00 | 0.00 | 64 | 995.4 |
| 20260905161654 | 32 | 317 | 1.6 | 4.8 | 0.00 | 0.00 | 0.00 | 66 | 995.5 |
| 20260905160154 | 31 | 15 | 0.0 | 6.4 | 0.00 | 0.00 | 0.00 | 69 | 995.6 |
| 20260905151654 | 30 | 190 | 1.6 | 4.8 | 0.00 | 0.00 | 0.00 | 70 | 995.8 |
| 20260905150156 | 30 | 306 | 0.0 | 0.0 | 0.00 | 0.00 | 0.00 | 72 | 995.7 |
| 20260905143201 | 28 | 219 | 0.0 | 0.0 | 0.00 | 0.00 | 0.00 | 78 | 995.8 |
| 20260905140154 | 27 | 258 | 0.0 | 0.0 | 0.00 | 0.00 | 0.00 | 81 | 996.1 |
| 20260905133153 | 26 | 12 | 0.0 | 0.0 | 0.00 | 0.00 | 0.00 | 84 | 995.9 |
| 20260905131657 | 25 | 30 | 0.0 | 0.0 | 0.00 | 0.00 | 0.00 | 86 | 995.9 |
| 20260905130154 | 25 | 30 | 0.0 | 0.0 | 0.00 | 0.00 | 0.00 | 88 | 996.0 |
| 20260905124653 | 24 | 47 | 0.0 | 0.0 | 0.00 | 0.00 | 0.00 | 89 | 996.1 |
| 20260905123152 | 23 | 45 | 0.0 | 0.0 | 0.00 | 0.00 | 0.00 | 90 | 996.0 |
| 20260905121657 | 23 | 58 | 0.0 | 0.0 | 0.00 | 0.00 | 0.00 | 90 | 995.9 |
| 20260905114656 | 23 | 58 | 0.0 | 0.0 | 0.00 | 0.00 | 0.00 | 90 | 995.6 |
| 20260905113152 | 23 | 58 | 0.0 | 0.0 | 0.00 | 0.00 | 0.00 | 90 | 995.3 |
| 20260905111654 | 23 | 58 | 0.0 | 0.0 | 0.00 | 0.00 | 0.00 | 89 | 995.3 |
| 20260905104700 | 23 | 58 | 0.0 | 0.0 | 0.00 | 0.00 | 0.00 | 89 | 994.9 |
| 20260905103157 | 23 | 58 | 0.0 | 1.6 | 0.00 | 0.00 | 0.00 | 88 | 994.8 |
| 20260905100156 | 23 | 105 | 0.0 | 0.0 | 0.00 | 0.00 | 0.00 | 88 | 994.7 |
| 20260905094656 | 23 | 105 | 0.0 | 0.0 | 0.00 | 0.00 | 0.00 | 88 | 994.5 |
| 20260905093156 | 23 | 44 | 0.0 | 0.0 | 0.00 | 0.00 | 0.00 | 86 | 994.4 |
| 20260905091655 | 23 | 44 | 0.0 | 0.0 | 0.00 | 0.00 | 0.00 | 86 | 994.3 |
| 20260905090155 | 23 | 44 | 0.0 | 0.0 | 0.00 | 0.00 | 0.00 | 86 | 994.3 |
| 20260905084654 | 24 | 44 | 0.0 | 0.0 | 0.00 | 0.00 | 0.00 | 85 | 994.2 |
| 20260905081658 | 24 | 7 | 0.0 | 0.0 | 0.00 | 0.00 | 0.00 | 85 | 994.3 |
| 20260905080156 | 24 | 7 | 0.0 | 1.6 | 0.00 | 0.00 | 0.00 | 85 | 994.2 |
| 20260905073155 | 25 | 24 | 0.0 | 0.0 | 0.00 | 0.00 | 0.00 | 84 | 994.1 |
| 20260905070158 | 25 | 24 | 0.0 | 0.0 | 0.00 | 0.00 | 0.00 | 84 | 994.4 |